M I D A S
Marine Information and Data Acquisition System
Tripno 2007 of the Zeeleeuw from 2010-09-23 07:11:26 to 2010-09-23 15:15:19
Back to CruiseResearch ActivitiesStationsMapUnderway DataData graphs

EquipmentUnitsComments
TimeDGPSUTC
LatitudeDGPSDM.mWGS84
LongitudeDGPSDM.mWGS84
SpeedMeteo Stationm/sRelative wind speed
DirectionMeteo StationdegRelative wind direction
TemperatureMeteo Stationdeg CelciusAir temperature
PressureMeteo StationPaAtmospheric pressure
HumidityMeteo Station%Relative humidity
Missing or incorrect values are displayed as -999
Metereological data collected by the RV Zeeleeuw from 2010-09-23 06:49:20 to 2010-09-23 15:23:59
                                                                                    Next 1000 lines
Time Latitude Longitude Speed Direction Temperature Pressure Humidity
2010-09-23 06:49:29 51°13.664 2°55.96 2.3 34 14 101200 53
2010-09-23 06:49:35 51°13.664 2°55.961 1.8 28 14 101200 53
2010-09-23 06:49:40 51°13.665 2°55.961 1.2 15 14 101200 53
2010-09-23 06:49:45 51°13.665 2°55.961 1.4 26 14 101200 53
2010-09-23 06:49:50 51°13.665 2°55.961 1.4 24 14 101200 54
2010-09-23 06:49:55 51°13.665 2°55.961 0.2 34 14 101200 54
2010-09-23 06:50:00 51°13.665 2°55.961 0.1 29 14 101200 53
2010-09-23 06:50:04 51°13.665 2°55.961 0.1 35 14 101200 53
2010-09-23 06:50:10 51°13.665 2°55.961 0.1 44 14 101200 53
2010-09-23 06:50:15 51°13.665 2°55.961 0.1 37 14 101200 53
2010-09-23 06:50:19 51°13.665 2°55.961 0.1 35 14 101200 53
2010-09-23 06:50:24 51°13.665 2°55.961 0.1 31 14 101200 53
2010-09-23 06:50:29 51°13.665 2°55.961 -999 29 14 101210 53
2010-09-23 06:50:35 51°13.664 2°55.961 -999 41 14 101210 53
2010-09-23 06:50:40 51°13.664 2°55.961 -999 34 14 101200 53
2010-09-23 06:50:45 51°13.664 2°55.961 -999 31 14 101200 53
2010-09-23 06:50:50 51°13.665 2°55.961 -999 30 14 101200 53
2010-09-23 06:50:55 51°13.665 2°55.961 -999 20 14 101200 53
2010-09-23 06:50:59 51°13.665 2°55.961 -999 28 14 101200 52
2010-09-23 06:51:04 51°13.665 2°55.961 0.1 21 14 101200 52
2010-09-23 06:51:10 51°13.664 2°55.961 0.1 28 14 101210 53
2010-09-23 06:51:15 51°13.664 2°55.961 -999 23 14 101210 53
2010-09-23 06:51:20 51°13.664 2°55.961 -999 27 14 101200 53
2010-09-23 06:51:25 51°13.664 2°55.961 -999 34 14 101200 53
2010-09-23 06:51:30 51°13.664 2°55.961 -999 15 13.9 101200 53
2010-09-23 06:51:35 51°13.664 2°55.961 -999 16 13.9 101200 53
2010-09-23 06:51:40 51°13.664 2°55.961 -999 12 14 101200 53
2010-09-23 06:51:45 51°13.664 2°55.961 -999 10 14 101200 53
2010-09-23 06:51:50 51°13.664 2°55.961 -999 35 13.9 101200 54
2010-09-23 06:51:55 51°13.664 2°55.96 -999 9 13.9 101200 54
2010-09-23 06:52:00 51°13.664 2°55.96 -999 12 14 101200 54
2010-09-23 06:52:05 51°13.664 2°55.961 -999 357 14 101200 54
2010-09-23 06:52:10 51°13.664 2°55.96 -999 -999 14 101200 54
2010-09-23 06:52:15 51°13.664 2°55.96 -999 36 14 101200 54
2010-09-23 06:52:20 51°13.664 2°55.96 -999 24 13.9 101200 54
2010-09-23 06:52:25 51°13.664 2°55.96 -999 41 13.9 101200 54
2010-09-23 06:52:30 51°13.663 2°55.961 -999 24 14 101200 54
2010-09-23 06:52:35 51°13.663 2°55.96 -999 41 14 101200 54
2010-09-23 06:52:40 51°13.663 2°55.961 -999 41 14 101200 54
2010-09-23 06:52:45 51°13.663 2°55.961 -999 40 14 101200 54
2010-09-23 06:52:50 51°13.663 2°55.961 -999 33 14 101190 54
2010-09-23 06:52:54 51°13.663 2°55.961 -999 37 14 101190 54
2010-09-23 06:52:59 51°13.663 2°55.961 -999 44 13.9 101190 53
2010-09-23 06:53:04 51°13.663 2°55.961 -999 35 13.9 101190 53
2010-09-23 06:53:10 51°13.663 2°55.961 -999 35 14 101200 54
2010-09-23 06:53:15 51°13.663 2°55.961 -999 32 14 101200 54
2010-09-23 06:53:20 51°13.663 2°55.961 -999 33 13.9 101190 54
2010-09-23 06:53:25 51°13.663 2°55.961 -999 42 13.9 101190 54
2010-09-23 06:53:30 51°13.663 2°55.961 -999 37 13.9 101190 53
2010-09-23 06:53:35 51°13.663 2°55.961 -999 26 13.9 101190 53
2010-09-23 06:53:40 51°13.663 2°55.961 -999 25 13.9 101190 52
2010-09-23 06:53:45 51°13.663 2°55.961 -999 35 13.9 101190 52
2010-09-23 06:53:50 51°13.663 2°55.961 -999 37 13.9 101190 53
2010-09-23 06:53:55 51°13.663 2°55.961 -999 20 13.9 101190 53
2010-09-23 06:54:00 51°13.663 2°55.961 -999 20 13.9 101190 54
2010-09-23 06:54:05 51°13.663 2°55.961 -999 41 13.9 101190 54
2010-09-23 06:54:10 51°13.663 2°55.961 -999 24 13.9 101190 54
2010-09-23 06:54:15 51°13.663 2°55.961 -999 42 13.9 101190 54
2010-09-23 06:54:20 51°13.663 2°55.961 -999 24 13.9 101190 54
2010-09-23 06:54:25 51°13.663 2°55.961 -999 35 13.9 101190 54
2010-09-23 06:54:30 51°13.663 2°55.961 -999 42 13.9 101190 54
2010-09-23 06:54:35 51°13.663 2°55.961 -999 36 13.9 101190 54
2010-09-23 06:54:40 51°13.663 2°55.961 -999 37 13.9 101190 54
2010-09-23 06:54:45 51°13.663 2°55.961 -999 34 13.9 101190 54
2010-09-23 06:54:49 51°13.663 2°55.961 -999 33 13.9 101190 54
2010-09-23 06:54:54 51°13.663 2°55.961 -999 37 13.9 101190 54
2010-09-23 06:55:00 51°13.663 2°55.961 -999 33 13.9 101190 54
2010-09-23 06:55:04 51°13.663 2°55.961 -999 25 13.9 101190 54
2010-09-23 06:55:09 51°13.663 2°55.961 -999 29 13.9 101190 54
2010-09-23 06:55:14 51°13.663 2°55.96 -999 36 13.9 101190 54
2010-09-23 06:55:20 51°13.663 2°55.961 -999 31 13.9 101190 54
2010-09-23 06:55:24 51°13.662 2°55.961 -999 39 13.9 101190 54
2010-09-23 06:55:30 51°13.663 2°55.961 -999 43 13.9 101190 54
2010-09-23 06:55:34 51°13.663 2°55.961 -999 44 13.9 101190 54
2010-09-23 06:55:39 51°13.663 2°55.961 -999 43 13.9 101180 54
2010-09-23 06:55:45 51°13.662 2°55.961 -999 28 13.9 101180 54
2010-09-23 06:55:50 51°13.662 2°55.961 -999 37 13.9 101190 54
2010-09-23 06:55:55 51°13.663 2°55.961 -999 30 13.9 101190 54
2010-09-23 06:56:00 51°13.663 2°55.961 -999 35 13.9 101180 54
2010-09-23 06:56:05 51°13.663 2°55.961 -999 31 13.9 101180 54
2010-09-23 06:56:10 51°13.663 2°55.961 1.2 37 13.8 101180 54
2010-09-23 06:56:15 51°13.663 2°55.961 0.2 44 13.8 101180 54
2010-09-23 06:56:20 51°13.663 2°55.961 0.2 21 13.8 101180 53
2010-09-23 06:56:25 51°13.662 2°55.961 1.5 35 13.8 101180 53
2010-09-23 06:56:30 51°13.662 2°55.961 1.7 31 13.9 101180 54
2010-09-23 06:56:35 51°13.662 2°55.961 1.3 31 13.9 101180 54
2010-09-23 06:56:40 51°13.662 2°55.961 0.3 42 13.8 101180 54
2010-09-23 06:56:45 51°13.662 2°55.961 0.1 40 13.8 101180 54
2010-09-23 06:56:50 51°13.662 2°55.961 0.1 44 13.8 101180 55
2010-09-23 06:56:55 51°13.662 2°55.96 -999 40 13.8 101180 55
2010-09-23 06:57:00 51°13.663 2°55.96 -999 41 13.8 101180 54
2010-09-23 06:57:05 51°13.662 2°55.96 -999 40 13.8 101180 54
2010-09-23 06:57:10 51°13.662 2°55.96 -999 40 13.8 101180 54
2010-09-23 06:57:15 51°13.662 2°55.96 -999 35 13.8 101180 54
2010-09-23 06:57:20 51°13.662 2°55.96 -999 24 13.8 101180 54
2010-09-23 06:57:25 51°13.662 2°55.961 -999 35 13.8 101180 54
2010-09-23 06:57:30 51°13.662 2°55.961 -999 24 13.8 101170 54
2010-09-23 06:57:35 51°13.662 2°55.961 -999 35 13.8 101170 54
2010-09-23 06:57:40 51°13.662 2°55.961 -999 24 13.8 101170 54
2010-09-23 06:57:45 51°13.662 2°55.961 -999 44 13.8 101170 54
2010-09-23 06:57:50 51°13.663 2°55.961 -999 44 13.8 101170 54
2010-09-23 06:57:55 51°13.663 2°55.961 -999 39 13.8 101170 54
2010-09-23 06:58:00 51°13.663 2°55.961 -999 37 13.8 101170 54
2010-09-23 06:58:05 51°13.663 2°55.961 -999 32 13.8 101170 54
2010-09-23 06:58:10 51°13.663 2°55.961 -999 28 13.8 101170 54
2010-09-23 06:58:15 51°13.663 2°55.961 -999 34 13.8 101170 54
2010-09-23 06:58:20 51°13.663 2°55.961 -999 25 13.8 101170 54
2010-09-23 06:58:25 51°13.663 2°55.961 -999 34 13.8 101170 54
2010-09-23 06:58:30 51°13.663 2°55.961 -999 40 13.8 101170 54
2010-09-23 06:58:35 51°13.663 2°55.961 -999 39 13.8 101170 54
2010-09-23 06:58:40 51°13.663 2°55.961 -999 24 13.8 101170 54
2010-09-23 06:58:45 51°13.663 2°55.961 -999 32 13.8 101170 54
2010-09-23 06:58:50 51°13.663 2°55.961 -999 33 13.8 101170 54
2010-09-23 06:58:55 51°13.663 2°55.961 -999 32 13.8 101170 54
2010-09-23 06:59:00 51°13.663 2°55.961 -999 27 13.8 101160 53
2010-09-23 06:59:05 51°13.663 2°55.961 -999 35 13.8 101160 53
2010-09-23 06:59:10 51°13.663 2°55.961 -999 35 13.8 101170 54
2010-09-23 06:59:15 51°13.663 2°55.96 -999 30 13.8 101170 54
2010-09-23 06:59:20 51°13.663 2°55.961 -999 26 13.8 101160 54
2010-09-23 06:59:25 51°13.663 2°55.961 -999 33 13.8 101160 54
2010-09-23 06:59:30 51°13.663 2°55.96 -999 33 13.8 101160 54
2010-09-23 06:59:35 51°13.663 2°55.96 0.1 33 13.8 101160 54
2010-09-23 06:59:40 51°13.663 2°55.96 0.1 26 13.8 101160 54
2010-09-23 06:59:45 51°13.662 2°55.961 -999 30 13.8 101160 54
2010-09-23 06:59:50 51°13.663 2°55.961 -999 37 13.8 101170 54
2010-09-23 06:59:55 51°13.663 2°55.961 1.7 37 13.8 101170 54
2010-09-23 07:00:00 51°13.663 2°55.961 1.7 28 13.8 101170 54
2010-09-23 07:00:05 51°13.663 2°55.961 1 29 13.8 101170 54
2010-09-23 07:00:10 51°13.662 2°55.961 0.7 29 13.8 101170 53
2010-09-23 07:00:15 51°13.662 2°55.961 0.1 40 13.8 101170 53
2010-09-23 07:00:20 51°13.663 2°55.961 0.1 41 13.8 101170 54
2010-09-23 07:00:25 51°13.663 2°55.961 -999 37 13.8 101170 54
2010-09-23 07:00:30 51°13.663 2°55.961 -999 37 13.8 101170 54
2010-09-23 07:00:35 51°13.663 2°55.96 1.5 30 13.8 101170 54
2010-09-23 07:00:40 51°13.663 2°55.96 1.5 28 13.8 101170 54
2010-09-23 07:00:45 51°13.663 2°55.961 1.3 28 13.8 101170 54
2010-09-23 07:00:50 51°13.663 2°55.961 1.1 31 13.8 101170 54
2010-09-23 07:00:55 51°13.663 2°55.961 0.1 35 13.8 101170 54
2010-09-23 07:01:00 51°13.663 2°55.961 0.1 26 13.8 101170 54
2010-09-23 07:01:05 51°13.663 2°55.961 -999 26 13.8 101170 54
2010-09-23 07:01:10 51°13.663 2°55.961 -999 28 13.8 101170 54
2010-09-23 07:01:15 51°13.663 2°55.961 -999 22 13.8 101170 54
2010-09-23 07:01:20 51°13.663 2°55.961 -999 22 13.8 101170 54
2010-09-23 07:01:25 51°13.663 2°55.961 -999 39 13.8 101170 54
2010-09-23 07:01:30 51°13.663 2°55.961 -999 37 13.8 101170 54
2010-09-23 07:01:35 51°13.663 2°55.961 -999 40 13.8 101170 54
2010-09-23 07:01:40 51°13.663 2°55.961 -999 41 13.8 101170 53
2010-09-23 07:01:45 51°13.663 2°55.961 -999 41 13.8 101170 53
2010-09-23 07:01:50 51°13.663 2°55.961 -999 41 13.8 101170 53
2010-09-23 07:01:55 51°13.663 2°55.961 -999 41 13.8 101170 53
2010-09-23 07:02:00 51°13.663 2°55.961 -999 41 13.8 101170 53
2010-09-23 07:02:05 51°13.663 2°55.961 -999 41 13.8 101170 53
2010-09-23 07:02:10 51°13.663 2°55.961 -999 -999 -999 -999 -999
2010-09-23 07:02:15 51°13.663 2°55.961 -999 -999 -999 -999 -999
2010-09-23 07:02:20 51°13.663 2°55.961 -999 -999 -999 -999 -999
2010-09-23 07:02:25 51°13.663 2°55.961 -999 26 -999 -999 -999
2010-09-23 07:02:30 51°13.662 2°55.961 -999 22 -999 -999 -999
2010-09-23 07:02:34 51°13.662 2°55.961 -999 22 -999 -999 -999
2010-09-23 07:02:39 51°13.662 2°55.961 -999 26 -999 -999 -999
2010-09-23 07:02:45 51°13.662 2°55.961 -999 29 -999 -999 -999
2010-09-23 07:02:50 51°13.662 2°55.961 -999 30 13.8 -999 31
2010-09-23 07:02:55 51°13.662 2°55.961 0.1 31 13.8 -999 31
2010-09-23 07:03:00 51°13.662 2°55.961 0.1 32 13.8 -999 56
2010-09-23 07:03:05 51°13.662 2°55.961 -999 15 13.8 -999 56
2010-09-23 07:03:10 51°13.662 2°55.961 -999 23 13.8 101170 55
2010-09-23 07:03:15 51°13.662 2°55.961 0.1 20 13.8 101170 55
2010-09-23 07:03:20 51°13.662 2°55.961 0.1 12 13.8 101170 55
2010-09-23 07:03:25 51°13.662 2°55.961 -999 20 13.8 101170 55
2010-09-23 07:03:30 51°13.662 2°55.961 -999 22 13.8 101170 55
2010-09-23 07:03:35 51°13.662 2°55.961 -999 30 13.8 101170 55
2010-09-23 07:03:40 51°13.662 2°55.961 -999 20 13.8 101170 55
2010-09-23 07:03:44 51°13.663 2°55.96 -999 39 13.8 101170 55
2010-09-23 07:03:49 51°13.663 2°55.961 -999 27 13.9 101170 54
2010-09-23 07:03:54 51°13.662 2°55.961 0.2 31 13.9 101170 54
2010-09-23 07:04:00 51°13.662 2°55.96 0.2 20 13.9 101160 54
2010-09-23 07:04:05 51°13.662 2°55.96 0.1 29 13.9 101160 54
2010-09-23 07:04:10 51°13.662 2°55.96 -999 23 13.9 101160 55
2010-09-23 07:04:15 51°13.662 2°55.96 -999 33 13.9 101160 55
2010-09-23 07:04:19 51°13.662 2°55.96 -999 33 13.9 101160 54
2010-09-23 07:04:24 51°13.662 2°55.96 -999 25 13.9 101160 54
2010-09-23 07:04:29 51°13.662 2°55.96 -999 20 13.9 101160 54
2010-09-23 07:04:33 51°13.662 2°55.96 -999 -999 13.9 101160 54
2010-09-23 07:04:38 51°13.662 2°55.96 -999 357 13.9 101160 53
2010-09-23 07:04:44 51°13.662 2°55.96 -999 13 13.9 101160 53
2010-09-23 07:04:49 51°13.662 2°55.96 -999 9 13.9 101160 54
2010-09-23 07:04:53 51°13.662 2°55.96 0.1 10 13.9 101160 54
2010-09-23 07:04:58 51°13.662 2°55.96 0.1 9 13.9 101160 54
2010-09-23 07:05:03 51°13.662 2°55.96 0.1 14 13.9 101160 54
2010-09-23 07:05:08 51°13.662 2°55.96 0.1 17 13.9 101170 54
2010-09-23 07:05:13 51°13.662 2°55.96 -999 13 13.9 101170 54
2010-09-23 07:05:17 51°13.662 2°55.961 -999 13 13.9 101160 54
2010-09-23 07:05:22 51°13.662 2°55.96 -999 13 13.9 101160 54
2010-09-23 07:05:27 51°13.662 2°55.96 -999 12 13.9 101170 54
2010-09-23 07:05:32 51°13.662 2°55.96 -999 24 13.9 101170 54
2010-09-23 07:05:37 51°13.662 2°55.961 -999 23 13.9 101170 54
2010-09-23 07:05:41 51°13.662 2°55.961 -999 10 13.9 101170 54
2010-09-23 07:05:46 51°13.662 2°55.96 -999 7 13.9 101170 54
2010-09-23 07:05:51 51°13.662 2°55.96 -999 20 13.9 101170 54
2010-09-23 07:05:56 51°13.662 2°55.961 -999 14 13.9 101170 54
2010-09-23 07:06:01 51°13.662 2°55.96 -999 10 13.9 101170 54
2010-09-23 07:06:05 51°13.662 2°55.96 -999 8 13.9 101170 54
2010-09-23 07:06:11 51°13.662 2°55.96 -999 9 13.9 101170 54
2010-09-23 07:06:16 51°13.662 2°55.96 -999 6 13.9 101160 54
2010-09-23 07:06:21 51°13.662 2°55.96 -999 2 13.9 101160 54
2010-09-23 07:06:26 51°13.662 2°55.96 -999 6 13.9 101160 54
2010-09-23 07:06:31 51°13.662 2°55.96 0.1 11 13.9 101160 54
2010-09-23 07:06:36 51°13.662 2°55.96 0.6 16 13.9 101160 54
2010-09-23 07:06:41 51°13.662 2°55.96 2.2 21 13.9 101160 54
2010-09-23 07:06:46 51°13.662 2°55.961 1.8 23 13.9 101160 54
2010-09-23 07:06:51 51°13.662 2°55.96 0.3 17 13.9 101160 54
2010-09-23 07:06:56 51°13.662 2°55.96 0.2 17 13.9 101160 55
2010-09-23 07:07:01 51°13.662 2°55.96 0.1 1 13.9 101160 55
2010-09-23 07:07:06 51°13.663 2°55.96 -999 9 13.9 101160 54
2010-09-23 07:07:11 51°13.662 2°55.96 0.1 10 13.9 101160 54
2010-09-23 07:07:16 51°13.662 2°55.96 0.1 13 13.9 101160 53
2010-09-23 07:07:21 51°13.662 2°55.961 -999 17 13.9 101160 53
2010-09-23 07:07:26 51°13.662 2°55.96 -999 16 13.9 101160 54
2010-09-23 07:07:31 51°13.662 2°55.96 0.3 21 13.9 101160 54
2010-09-23 07:07:36 51°13.662 2°55.96 0.2 24 13.9 101160 54
2010-09-23 07:07:41 51°13.663 2°55.96 0.1 12 13.9 101160 54
2010-09-23 07:07:46 51°13.663 2°55.96 0.1 9 13.9 101160 54
2010-09-23 07:07:51 51°13.663 2°55.96 -999 11 13.9 101160 54
2010-09-23 07:07:56 51°13.662 2°55.961 -999 14 13.9 101160 54
2010-09-23 07:08:01 51°13.662 2°55.96 0.1 5 13.9 101160 54
2010-09-23 07:08:06 51°13.662 2°55.96 0.1 9 13.9 101160 54
2010-09-23 07:08:11 51°13.663 2°55.96 0.1 6 13.9 101160 54
2010-09-23 07:08:16 51°13.662 2°55.96 1.2 10 13.9 101160 54
2010-09-23 07:08:21 51°13.663 2°55.96 0.2 5 13.9 101160 54
2010-09-23 07:08:26 51°13.663 2°55.96 0.1 4 13.9 101160 54
2010-09-23 07:08:31 51°13.663 2°55.96 -999 4 13.9 101160 54
2010-09-23 07:08:36 51°13.663 2°55.96 -999 13 13.9 101160 54
2010-09-23 07:08:41 51°13.663 2°55.96 0.6 10 13.9 101160 54
2010-09-23 07:08:46 51°13.663 2°55.96 0.7 9 13.9 101160 54
2010-09-23 07:08:51 51°13.663 2°55.96 1.3 13 13.9 101160 54
2010-09-23 07:08:56 51°13.663 2°55.96 0.4 18 13.9 101160 54
2010-09-23 07:09:01 51°13.663 2°55.96 1.5 14 13.9 101160 54
2010-09-23 07:09:06 51°13.663 2°55.96 1 14 13.9 101160 54
2010-09-23 07:09:11 51°13.663 2°55.96 0.1 1 13.9 101160 54
2010-09-23 07:09:16 51°13.663 2°55.96 0.1 360 13.8 101160 54
2010-09-23 07:09:21 51°13.663 2°55.96 -999 352 13.8 101160 54
2010-09-23 07:09:26 51°13.663 2°55.961 -999 2 13.9 101160 54
2010-09-23 07:09:31 51°13.663 2°55.96 -999 1 13.9 101160 54
2010-09-23 07:09:36 51°13.663 2°55.96 -999 3 13.9 101160 54
2010-09-23 07:09:41 51°13.663 2°55.96 -999 5 13.9 101160 54
2010-09-23 07:09:46 51°13.663 2°55.96 -999 4 13.9 101160 54
2010-09-23 07:09:51 51°13.663 2°55.961 -999 10 13.9 101160 54
2010-09-23 07:09:57 51°13.662 2°55.961 -999 6 13.9 101160 53
2010-09-23 07:10:01 51°13.662 2°55.961 -999 4 13.9 101160 53
2010-09-23 07:10:05 51°13.662 2°55.96 -999 5 13.9 101160 54
2010-09-23 07:10:11 51°13.662 2°55.961 -999 13 13.9 101160 54
2010-09-23 07:10:16 51°13.662 2°55.961 -999 358 13.9 101160 54
2010-09-23 07:10:21 51°13.662 2°55.96 0.1 348 13.9 101160 54
2010-09-23 07:10:26 51°13.662 2°55.961 0.1 352 13.9 101160 54
2010-09-23 07:10:31 51°13.663 2°55.961 0.9 347 13.9 101160 54
2010-09-23 07:10:36 51°13.663 2°55.961 1.8 346 13.9 101160 54
2010-09-23 07:10:41 51°13.663 2°55.96 0.2 358 13.9 101160 54
2010-09-23 07:10:46 51°13.663 2°55.961 0.1 357 13.9 101160 54
2010-09-23 07:10:50 51°13.663 2°55.961 0.5 358 13.9 101160 54
2010-09-23 07:10:56 51°13.662 2°55.961 0.2 355 13.9 101160 54
2010-09-23 07:11:01 51°13.663 2°55.961 0.1 3 13.9 101160 54
2010-09-23 07:11:06 51°13.663 2°55.961 0.1 2 13.9 101160 54
2010-09-23 07:11:11 51°13.663 2°55.961 -999 355 13.9 101160 54
2010-09-23 07:11:16 51°13.663 2°55.961 -999 352 13.9 101160 54
2010-09-23 07:11:21 51°13.663 2°55.961 -999 354 13.9 101160 54
2010-09-23 07:11:26 51°13.663 2°55.961 -999 352 13.9 101160 54
2010-09-23 07:11:30 51°13.663 2°55.961 -999 359 13.9 101160 54
2010-09-23 07:11:36 51°13.663 2°55.961 0.1 357 13.9 101160 54
2010-09-23 07:11:41 51°13.663 2°55.961 0.4 360 13.9 101160 54
2010-09-23 07:11:46 51°13.662 2°55.961 0.3 359 13.9 101160 54
2010-09-23 07:11:51 51°13.662 2°55.961 0.1 2 13.9 101160 54
2010-09-23 07:11:56 51°13.662 2°55.961 0.1 -999 13.9 101160 54
2010-09-23 07:12:01 51°13.662 2°55.961 -999 -999 13.9 101160 54
2010-09-23 07:12:06 51°13.662 2°55.961 -999 4 13.9 101160 54
2010-09-23 07:12:11 51°13.662 2°55.961 -999 10 13.9 101160 54
2010-09-23 07:12:16 51°13.662 2°55.961 -999 8 13.9 101160 54
2010-09-23 07:12:21 51°13.662 2°55.961 -999 1 13.9 101160 54
2010-09-23 07:12:26 51°13.662 2°55.961 0.1 6 13.9 101160 54
2010-09-23 07:12:31 51°13.662 2°55.961 0.1 17 13.9 101160 54
2010-09-23 07:12:36 51°13.662 2°55.961 0.1 18 13.9 101150 52
2010-09-23 07:12:41 51°13.662 2°55.961 -999 19 13.9 101150 52
2010-09-23 07:12:46 51°13.662 2°55.961 -999 12 13.9 101150 54
2010-09-23 07:12:51 51°13.662 2°55.961 0.1 13 13.9 101150 54
2010-09-23 07:12:56 51°13.662 2°55.961 0.1 20 13.9 101150 54
2010-09-23 07:13:01 51°13.662 2°55.961 1.5 8 13.9 101150 54
2010-09-23 07:13:06 51°13.662 2°55.961 1.6 13 13.9 101150 53
2010-09-23 07:13:10 51°13.662 2°55.961 0.2 9 13.9 101150 53
2010-09-23 07:13:16 51°13.662 2°55.961 0.1 2 13.9 101150 54
2010-09-23 07:13:21 51°13.662 2°55.961 0.1 4 13.9 101150 54
2010-09-23 07:13:26 51°13.662 2°55.961 0.1 4 13.9 101150 53
2010-09-23 07:13:31 51°13.662 2°55.961 -999 8 13.9 101150 53
2010-09-23 07:13:36 51°13.662 2°55.961 -999 9 13.9 101150 53
2010-09-23 07:13:41 51°13.662 2°55.961 -999 10 13.9 101150 53
2010-09-23 07:13:46 51°13.662 2°55.961 -999 11 13.9 101150 54
2010-09-23 07:13:50 51°13.662 2°55.961 -999 13 13.9 101150 54
2010-09-23 07:13:56 51°13.662 2°55.961 -999 355 13.9 101150 54
2010-09-23 07:14:01 51°13.662 2°55.961 -999 20 13.9 101150 54
2010-09-23 07:14:06 51°13.662 2°55.961 -999 22 13.9 101150 53
2010-09-23 07:14:10 51°13.662 2°55.961 -999 25 13.9 101150 53
2010-09-23 07:14:16 51°13.662 2°55.961 -999 26 13.9 101150 54
2010-09-23 07:14:21 51°13.662 2°55.961 -999 25 13.9 101150 54
2010-09-23 07:14:26 51°13.662 2°55.961 -999 30 13.9 101150 53
2010-09-23 07:14:30 51°13.662 2°55.961 -999 26 13.9 101150 53
2010-09-23 07:14:36 51°13.662 2°55.961 -999 26 13.9 101150 54
2010-09-23 07:14:41 51°13.662 2°55.961 -999 15 13.9 101150 54
2010-09-23 07:14:46 51°13.662 2°55.961 -999 14 13.9 101150 54
2010-09-23 07:14:51 51°13.662 2°55.961 -999 19 13.9 101150 54
2010-09-23 07:14:56 51°13.662 2°55.961 -999 18 13.9 101150 54
2010-09-23 07:15:01 51°13.662 2°55.961 -999 20 13.9 101150 54
2010-09-23 07:15:06 51°13.662 2°55.961 -999 12 13.9 101150 54
2010-09-23 07:15:11 51°13.661 2°55.961 -999 3 13.9 101150 54
2010-09-23 07:15:16 51°13.661 2°55.961 -999 11 13.9 101150 53
2010-09-23 07:15:21 51°13.661 2°55.961 -999 30 13.9 101150 53
2010-09-23 07:15:26 51°13.661 2°55.961 -999 20 13.9 101150 54
2010-09-23 07:15:30 51°13.661 2°55.961 -999 20 13.9 101150 54
2010-09-23 07:15:36 51°13.661 2°55.961 -999 20 13.9 101150 53
2010-09-23 07:15:41 51°13.661 2°55.961 -999 20 13.9 101150 53
2010-09-23 07:15:46 51°13.661 2°55.961 -999 18 13.9 101150 53
2010-09-23 07:15:51 51°13.661 2°55.961 0.1 20 13.9 101150 53
2010-09-23 07:15:56 51°13.661 2°55.961 0.1 22 14 101150 53
2010-09-23 07:16:01 51°13.661 2°55.96 -999 16 14 101150 53
2010-09-23 07:16:06 51°13.661 2°55.96 -999 25 13.9 101150 54
2010-09-23 07:16:11 51°13.661 2°55.959 0.1 22 13.9 101150 54
2010-09-23 07:16:16 51°13.662 2°55.958 0.1 11 14 101150 53
2010-09-23 07:16:21 51°13.662 2°55.956 0.1 22 14 101150 53
2010-09-23 07:16:26 51°13.663 2°55.953 -999 18 13.9 101150 53
2010-09-23 07:16:30 51°13.664 2°55.951 -999 31 13.9 101150 53
2010-09-23 07:16:36 51°13.665 2°55.947 0.1 27 13.9 101150 53
2010-09-23 07:16:42 51°13.666 2°55.943 0.1 28 13.9 101150 53
2010-09-23 07:16:47 51°13.668 2°55.938 0.1 33 13.9 101150 53
2010-09-23 07:16:53 51°13.669 2°55.933 -999 30 13.9 101150 53
2010-09-23 07:16:59 51°13.671 2°55.927 -999 28 13.9 101150 53
2010-09-23 07:17:04 51°13.672 2°55.922 -999 26 13.9 101150 53
2010-09-23 07:17:10 51°13.674 2°55.915 -999 26 13.9 101150 53
2010-09-23 07:17:15 51°13.676 2°55.909 2.5 35 13.9 101150 53
2010-09-23 07:17:20 51°13.678 2°55.902 2.6 35 13.9 101150 53
2010-09-23 07:17:25 51°13.679 2°55.896 0.7 31 13.9 101150 53
2010-09-23 07:17:30 51°13.681 2°55.889 0.2 33 13.9 101150 53
2010-09-23 07:17:34 51°13.682 2°55.883 1.6 35 13.9 101150 53
2010-09-23 07:17:40 51°13.684 2°55.874 2.2 29 13.9 101150 54
2010-09-23 07:17:45 51°13.685 2°55.866 1.8 28 13.9 101150 54
2010-09-23 07:17:50 51°13.686 2°55.858 1.1 29 13.9 101150 53
2010-09-23 07:17:54 51°13.687 2°55.852 2.7 30 13.9 101150 53
2010-09-23 07:18:00 51°13.689 2°55.842 2.2 22 13.9 101150 51
2010-09-23 07:18:05 51°13.69 2°55.834 1.8 40 13.9 101150 51
2010-09-23 07:18:10 51°13.69 2°55.827 1.7 41 13.9 101150 54
2010-09-23 07:18:14 51°13.691 2°55.82 2.3 42 13.9 101150 54
2010-09-23 07:18:20 51°13.692 2°55.812 2.5 41 14 101150 55
2010-09-23 07:18:25 51°13.693 2°55.804 3.2 37 14 101150 55
2010-09-23 07:18:30 51°13.694 2°55.797 3.3 38 14 101150 52
2010-09-23 07:18:34 51°13.694 2°55.791 3.5 39 14 101150 52
2010-09-23 07:18:39 51°13.695 2°55.784 4.5 38 14 101150 55
2010-09-23 07:18:44 51°13.695 2°55.779 3.2 40 14 101150 55
2010-09-23 07:18:49 51°13.696 2°55.773 3 41 14 101150 52
2010-09-23 07:18:54 51°13.696 2°55.77 2.2 34 14 101150 52
2010-09-23 07:18:58 51°13.696 2°55.768 1.9 34 14 101150 52
2010-09-23 07:19:03 51°13.696 2°55.766 0.8 45 14 101150 52
2010-09-23 07:19:08 51°13.697 2°55.764 0.7 38 13.9 101150 55
2010-09-23 07:19:13 51°13.697 2°55.763 2.4 33 13.9 101150 55
2010-09-23 07:19:18 51°13.698 2°55.763 2.1 22 14 101150 53
2010-09-23 07:19:23 51°13.7 2°55.762 0.4 33 14 101150 53
2010-09-23 07:19:28 51°13.701 2°55.763 0.2 22 14 101150 54
2010-09-23 07:19:33 51°13.702 2°55.763 1.5 40 14 101150 54
2010-09-23 07:19:38 51°13.702 2°55.763 1.5 43 14 101150 52
2010-09-23 07:19:42 51°13.701 2°55.763 0.8 34 14 101150 52
2010-09-23 07:19:47 51°13.7 2°55.761 1.2 22 14 101150 53
2010-09-23 07:19:52 51°13.699 2°55.759 2.7 39 14 101150 53
2010-09-23 07:19:57 51°13.698 2°55.757 2.4 26 14 101150 52
2010-09-23 07:20:02 51°13.696 2°55.754 1.7 34 14 101150 52
2010-09-23 07:20:06 51°13.695 2°55.752 1.6 29 14 101150 54
2010-09-23 07:20:12 51°13.693 2°55.75 1.4 33 14 101150 54
2010-09-23 07:20:18 51°13.691 2°55.748 1.3 28 14 101150 53
2010-09-23 07:20:23 51°13.691 2°55.747 1.1 33 14 101150 53
2010-09-23 07:20:28 51°13.691 2°55.746 0.5 22 14 101150 54
2010-09-23 07:20:33 51°13.692 2°55.745 0.2 33 14 101150 54
2010-09-23 07:20:38 51°13.694 2°55.745 0.2 27 14 101160 52
2010-09-23 07:20:43 51°13.696 2°55.744 0.1 37 14 101160 52
2010-09-23 07:20:48 51°13.698 2°55.742 0.1 20 14 101150 53
2010-09-23 07:20:53 51°13.701 2°55.741 -999 36 14 101150 53
2010-09-23 07:20:59 51°13.705 2°55.738 -999 269 14 101150 53
2010-09-23 07:21:02 51°13.707 2°55.736 0.1 257 14 101150 53
2010-09-23 07:21:08 51°13.713 2°55.731 0.1 254 14.1 101150 53
2010-09-23 07:21:13 51°13.718 2°55.726 0.1 319 14.1 101150 53
2010-09-23 07:21:19 51°13.725 2°55.72 -999 319 14 101150 53
2010-09-23 07:21:22 51°13.728 2°55.716 -999 330 14 101150 53
2010-09-23 07:21:28 51°13.737 2°55.709 -999 336 14.1 101150 53
2010-09-23 07:21:33 51°13.744 2°55.701 0.1 327 14.1 101150 53
2010-09-23 07:21:38 51°13.752 2°55.694 0.1 317 14.1 101150 53
2010-09-23 07:21:43 51°13.761 2°55.686 1.2 319 14.1 101150 53
2010-09-23 07:21:47 51°13.768 2°55.68 1.1 318 14.1 101150 53
2010-09-23 07:21:52 51°13.777 2°55.672 1.1 321 14.1 101150 53
2010-09-23 07:21:58 51°13.789 2°55.662 2.3 318 14.1 101150 51
2010-09-23 07:22:03 51°13.799 2°55.654 1.3 238 14.1 101150 51
2010-09-23 07:22:07 51°13.808 2°55.648 0.8 29 14.1 101150 52
2010-09-23 07:22:12 51°13.818 2°55.639 1.5 321 14.1 101150 52
2010-09-23 07:22:16 51°13.827 2°55.633 1.2 328 14.1 101150 55
2010-09-23 07:22:22 51°13.841 2°55.623 1.8 332 14.1 101150 55
2010-09-23 07:22:27 51°13.852 2°55.615 1.5 332 14.1 101150 53
2010-09-23 07:22:31 51°13.861 2°55.608 1.2 32 14.1 101150 53
2010-09-23 07:22:36 51°13.872 2°55.6 1.5 316 14.1 101150 53
2010-09-23 07:22:41 51°13.884 2°55.592 3.5 333 14.1 101150 53
2010-09-23 07:22:46 51°13.896 2°55.583 3 329 14.1 101150 53
2010-09-23 07:22:51 51°13.908 2°55.575 2.9 321 14.1 101150 53
2010-09-23 07:22:55 51°13.918 2°55.568 2.7 316 14.1 101150 55
2010-09-23 07:23:01 51°13.932 2°55.558 2.1 36 14.1 101150 55
2010-09-23 07:23:06 51°13.944 2°55.549 1.9 323 14.1 101150 54
2010-09-23 07:23:11 51°13.956 2°55.54 3 33 14.1 101150 54
2010-09-23 07:23:15 51°13.966 2°55.533 2.5 20 14.1 101150 51
2010-09-23 07:23:21 51°13.981 2°55.522 2.5 34 14.1 101150 51
2010-09-23 07:23:26 51°13.993 2°55.513 3.5 28 14.1 101150 54
2010-09-23 07:23:31 51°14.005 2°55.505 3.4 39 14.1 101150 54
2010-09-23 07:23:35 51°14.015 2°55.497 3.5 318 14.1 101150 54
2010-09-23 07:23:41 51°14.029 2°55.487 3.2 34 14.1 101150 54
2010-09-23 07:23:46 51°14.042 2°55.478 4.2 23 14.1 101150 53
2010-09-23 07:23:51 51°14.054 2°55.469 2.5 322 14.1 101150 53
2010-09-23 07:23:56 51°14.066 2°55.46 2.7 320 14.1 101150 52
2010-09-23 07:24:01 51°14.078 2°55.451 3.6 33 14.1 101150 52
2010-09-23 07:24:06 51°14.09 2°55.442 3.4 28 14.1 101150 54
2010-09-23 07:24:11 51°14.103 2°55.432 3.3 323 14.1 101150 54
2010-09-23 07:24:15 51°14.113 2°55.424 3 317 14.1 101150 52
2010-09-23 07:24:21 51°14.128 2°55.412 2.7 325 14.1 101150 52
2010-09-23 07:24:26 51°14.14 2°55.403 3.9 323 14.1 101150 54
2010-09-23 07:24:31 51°14.153 2°55.392 2.6 321 14.1 101150 54
2010-09-23 07:24:35 51°14.163 2°55.383 3.1 324 14.1 101150 52
2010-09-23 07:24:41 51°14.178 2°55.371 3.2 326 14.1 101150 52
2010-09-23 07:24:46 51°14.19 2°55.36 2.7 320 14.1 101150 53
2010-09-23 07:24:51 51°14.203 2°55.35 4.9 31 14.1 101150 53
2010-09-23 07:24:55 51°14.213 2°55.341 5.3 323 14.1 101150 52
2010-09-23 07:25:01 51°14.228 2°55.328 4.7 34 14.1 101150 52
2010-09-23 07:25:06 51°14.241 2°55.316 4.4 22 14.1 101150 52
2010-09-23 07:25:11 51°14.254 2°55.305 3.3 318 14.1 101150 52
2010-09-23 07:25:15 51°14.264 2°55.295 3.5 319 14.1 101150 54
2010-09-23 07:25:21 51°14.28 2°55.281 3.6 34 14.1 101150 54
2010-09-23 07:25:26 51°14.292 2°55.268 3.4 283 14.1 101150 52
2010-09-23 07:25:31 51°14.305 2°55.255 4.1 34 14.1 101150 52
2010-09-23 07:25:35 51°14.316 2°55.245 3.6 23 14.1 101140 52
2010-09-23 07:25:41 51°14.333 2°55.228 2.8 317 14.1 101140 52
2010-09-23 07:25:46 51°14.346 2°55.213 3.1 316 14.1 101140 53
2010-09-23 07:25:51 51°14.359 2°55.199 4 318 14.1 101140 53
2010-09-23 07:25:55 51°14.37 2°55.187 4.9 28 14.1 101140 53
2010-09-23 07:26:01 51°14.386 2°55.17 5.7 319 14.1 101140 53
2010-09-23 07:26:06 51°14.4 2°55.156 5.3 315 14.1 101140 52
2010-09-23 07:26:11 51°14.415 2°55.142 5 37 14.1 101140 52
2010-09-23 07:26:15 51°14.426 2°55.13 4.1 28 14.1 101140 52
2010-09-23 07:26:20 51°14.44 2°55.114 5.7 316 14.1 101140 52
2010-09-23 07:26:26 51°14.457 2°55.096 5.1 318 14.2 101140 54
2010-09-23 07:26:31 51°14.472 2°55.081 5.2 33 14.2 101140 54
2010-09-23 07:26:35 51°14.484 2°55.068 5.1 316 14.2 101130 54
2010-09-23 07:26:41 51°14.501 2°55.049 6.3 36 14.2 101130 54
2010-09-23 07:26:46 51°14.516 2°55.032 6.1 27 14.2 101140 51
2010-09-23 07:26:51 51°14.53 2°55.014 6.1 33 14.2 101140 51
2010-09-23 07:26:55 51°14.541 2°54.999 5.8 27 14.2 101140 54
2010-09-23 07:27:01 51°14.558 2°54.975 5.9 38 14.2 101140 54
2010-09-23 07:27:06 51°14.572 2°54.957 5.8 23 14.2 101130 53
2010-09-23 07:27:11 51°14.586 2°54.939 5.3 236 14.2 101130 53
2010-09-23 07:27:15 51°14.598 2°54.924 5.4 26 14.2 101130 52
2010-09-23 07:27:20 51°14.613 2°54.907 5.2 32 14.2 101130 52
2010-09-23 07:27:26 51°14.631 2°54.887 5 21 14.2 101130 54
2010-09-23 07:27:31 51°14.646 2°54.871 4.3 39 14.2 101130 54
2010-09-23 07:27:35 51°14.659 2°54.859 4.4 26 14.2 101130 52
2010-09-23 07:27:40 51°14.674 2°54.843 4.8 32 14.2 101130 52
2010-09-23 07:27:46 51°14.693 2°54.823 4.2 281 14.2 101130 51
2010-09-23 07:27:51 51°14.708 2°54.807 4.6 39 14.2 101130 51
2010-09-23 07:27:55 51°14.72 2°54.794 4.6 26 14.2 101130 54
2010-09-23 07:28:01 51°14.738 2°54.773 4.5 232 14.2 101130 54
2010-09-23 07:28:06 51°14.753 2°54.756 4.3 21 14.2 101130 52
2010-09-23 07:28:11 51°14.768 2°54.738 4.6 32 14.2 101130 52
2010-09-23 07:28:15 51°14.779 2°54.725 4.2 24 14.2 101130 52
2010-09-23 07:28:21 51°14.797 2°54.704 4.2 233 14.2 101130 52
2010-09-23 07:28:26 51°14.812 2°54.686 4.2 26 14.3 101120 53
2010-09-23 07:28:31 51°14.826 2°54.669 4.2 40 14.3 101120 53
2010-09-23 07:28:36 51°14.841 2°54.651 4.3 27 14.3 101120 52
2010-09-23 07:28:41 51°14.856 2°54.634 4.4 33 14.3 101120 52
2010-09-23 07:28:46 51°14.87 2°54.616 3.8 27 14.2 101120 51
2010-09-23 07:28:51 51°14.885 2°54.598 4.6 32 14.2 101120 51
2010-09-23 07:28:55 51°14.897 2°54.584 4.6 19 14.2 101120 53
2010-09-23 07:29:01 51°14.914 2°54.562 4.3 37 14.2 101120 53
2010-09-23 07:29:06 51°14.929 2°54.544 4.4 20 14.2 101120 54
2010-09-23 07:29:11 51°14.943 2°54.526 3.8 37 14.2 101120 54
2010-09-23 07:29:15 51°14.954 2°54.512 3.9 27 14.2 101120 51
2010-09-23 07:29:20 51°14.968 2°54.495 3.7 316 14.2 101120 51
2010-09-23 07:29:26 51°14.986 2°54.474 3.8 316 14.2 101120 51
2010-09-23 07:29:31 51°15 2°54.456 4.1 38 14.2 101120 51
2010-09-23 07:29:35 51°15.011 2°54.442 4.3 21 14.2 101120 53
2010-09-23 07:29:41 51°15.029 2°54.421 4.5 231 14.2 101120 53
2010-09-23 07:29:46 51°15.043 2°54.403 4.4 20 14.2 101120 52
2010-09-23 07:29:51 51°15.057 2°54.386 4.7 31 14.2 101120 52
2010-09-23 07:29:55 51°15.069 2°54.372 4.5 25 14.3 101120 51
2010-09-23 07:30:01 51°15.086 2°54.351 4 33 14.3 101120 51
2010-09-23 07:30:06 51°15.1 2°54.333 4.2 26 14.3 101120 52
2010-09-23 07:30:11 51°15.115 2°54.316 4.2 35 14.3 101120 52
2010-09-23 07:30:15 51°15.127 2°54.302 4.9 26 14.3 101120 52
2010-09-23 07:30:21 51°15.144 2°54.28 4.1 34 14.3 101120 52
2010-09-23 07:30:26 51°15.158 2°54.262 4.4 29 14.3 101110 51
2010-09-23 07:30:31 51°15.173 2°54.244 4.2 34 14.3 101110 51
2010-09-23 07:30:36 51°15.187 2°54.226 4.3 23 14.3 101110 52
2010-09-23 07:30:41 51°15.201 2°54.207 4.3 38 14.3 101110 52
2010-09-23 07:30:46 51°15.216 2°54.189 4.9 27 14.3 101110 52
2010-09-23 07:30:51 51°15.23 2°54.171 4 317 14.3 101110 52
2010-09-23 07:30:55 51°15.242 2°54.158 4 21 14.3 101110 52
2010-09-23 07:31:01 51°15.259 2°54.137 4.5 39 14.3 101110 52
2010-09-23 07:31:06 51°15.274 2°54.12 4 316 14.3 101110 52
2010-09-23 07:31:11 51°15.289 2°54.102 4.1 319 14.3 101110 52
2010-09-23 07:31:15 51°15.301 2°54.089 4.1 317 14.3 101110 51
2010-09-23 07:31:21 51°15.319 2°54.068 3.6 316 14.3 101110 51
2010-09-23 07:31:26 51°15.334 2°54.051 4.2 320 14.3 101110 52
2010-09-23 07:31:31 51°15.349 2°54.034 3.9 316 14.3 101110 52
2010-09-23 07:31:35 51°15.36 2°54.02 4.2 315 14.3 101110 52
2010-09-23 07:31:40 51°15.375 2°54.003 4.1 34 14.3 101110 52
2010-09-23 07:31:46 51°15.393 2°53.982 3.8 29 14.3 101110 53
2010-09-23 07:31:51 51°15.407 2°53.964 4.3 316 14.3 101110 53
2010-09-23 07:31:55 51°15.419 2°53.949 3.7 26 14.3 101110 52
2010-09-23 07:32:01 51°15.436 2°53.927 4.1 34 14.3 101110 52
2010-09-23 07:32:05 51°15.447 2°53.912 3.9 317 14.3 101110 51
2010-09-23 07:32:11 51°15.465 2°53.889 4.2 33 14.3 101110 51
2010-09-23 07:32:15 51°15.476 2°53.874 4.1 316 14.3 101100 52
2010-09-23 07:32:21 51°15.493 2°53.853 3.8 35 14.3 101100 52
2010-09-23 07:32:26 51°15.508 2°53.835 4.1 315 14.3 101110 52
2010-09-23 07:32:31 51°15.523 2°53.817 4.1 318 14.3 101110 52
2010-09-23 07:32:35 51°15.534 2°53.802 3.9 316 14.3 101100 52
2010-09-23 07:32:41 51°15.552 2°53.781 3.9 318 14.3 101100 52
2010-09-23 07:32:46 51°15.567 2°53.763 4.2 318 14.4 101100 52
2010-09-23 07:32:51 51°15.581 2°53.745 4.1 315 14.4 101100 52
2010-09-23 07:32:55 51°15.593 2°53.73 3.8 27 14.4 101100 52
2010-09-23 07:33:01 51°15.611 2°53.709 4.2 316 14.4 101100 52
2010-09-23 07:33:06 51°15.626 2°53.691 4 317 14.3 101100 52
2010-09-23 07:33:11 51°15.64 2°53.673 4 319 14.3 101100 52
2010-09-23 07:33:15 51°15.652 2°53.659 3.9 317 14.4 101100 53
2010-09-23 07:33:21 51°15.67 2°53.638 4.3 316 14.4 101100 53
2010-09-23 07:33:26 51°15.685 2°53.62 4.2 319 14.4 101100 54
2010-09-23 07:33:31 51°15.7 2°53.602 4.3 39 14.4 101100 54
2010-09-23 07:33:35 51°15.711 2°53.588 4 316 14.4 101100 52
2010-09-23 07:33:41 51°15.729 2°53.566 3.8 318 14.4 101100 52
2010-09-23 07:33:46 51°15.744 2°53.549 4.1 317 14.4 101100 54
2010-09-23 07:33:51 51°15.759 2°53.531 4 319 14.4 101100 54
2010-09-23 07:33:55 51°15.771 2°53.517 4 319 14.4 101100 51
2010-09-23 07:34:01 51°15.789 2°53.497 3.7 316 14.4 101100 51
2010-09-23 07:34:06 51°15.804 2°53.48 3.8 318 14.4 101100 53
2010-09-23 07:34:11 51°15.819 2°53.463 4.1 316 14.4 101100 53
2010-09-23 07:34:15 51°15.831 2°53.449 4.2 316 14.4 101100 54
2010-09-23 07:34:21 51°15.849 2°53.429 3.8 318 14.4 101100 54
2010-09-23 07:34:26 51°15.865 2°53.413 3.7 316 14.4 101100 54
2010-09-23 07:34:31 51°15.88 2°53.397 3.8 33 14.4 101100 54
2010-09-23 07:34:35 51°15.893 2°53.385 3.5 316 14.4 101100 52
2010-09-23 07:34:41 51°15.911 2°53.367 3.8 317 14.4 101100 52
2010-09-23 07:34:46 51°15.927 2°53.351 3 319 14.4 101100 54
2010-09-23 07:34:51 51°15.942 2°53.335 3.7 316 14.4 101100 54
2010-09-23 07:34:55 51°15.954 2°53.321 3.9 22 14.4 101100 51
2010-09-23 07:35:01 51°15.972 2°53.302 3.5 33 14.4 101100 51
2010-09-23 07:35:06 51°15.987 2°53.285 3.3 28 14.4 101100 52
2010-09-23 07:35:11 51°16.003 2°53.269 3.1 315 14.4 101100 52
2010-09-23 07:35:15 51°16.015 2°53.256 3.4 315 14.4 101100 54
2010-09-23 07:35:21 51°16.033 2°53.237 3.1 315 14.4 101100 54
2010-09-23 07:35:26 51°16.048 2°53.221 3.2 316 14.4 101100 52
2010-09-23 07:35:31 51°16.064 2°53.205 2.8 33 14.4 101100 52
2010-09-23 07:35:35 51°16.076 2°53.192 2.8 22 14.4 101100 54
2010-09-23 07:35:41 51°16.094 2°53.172 3.1 34 14.4 101100 54
2010-09-23 07:35:46 51°16.109 2°53.156 3.2 317 14.4 101100 52
2010-09-23 07:35:51 51°16.124 2°53.14 2.6 317 14.4 101100 52
2010-09-23 07:35:55 51°16.137 2°53.127 3.5 319 14.4 101100 52
2010-09-23 07:36:01 51°16.155 2°53.108 3.4 35 14.4 101100 52
2010-09-23 07:36:06 51°16.17 2°53.091 3.1 23 14.4 101100 52
2010-09-23 07:36:11 51°16.185 2°53.075 2.8 315 14.4 101100 52
2010-09-23 07:36:15 51°16.197 2°53.062 2.9 317 14.4 101100 52
2010-09-23 07:36:21 51°16.215 2°53.043 2.8 315 14.4 101100 52
2010-09-23 07:36:26 51°16.231 2°53.027 2.6 317 14.4 101100 53
2010-09-23 07:36:31 51°16.246 2°53.012 3 315 14.4 101100 53
2010-09-23 07:36:35 51°16.258 2°52.999 2.9 319 14.4 101100 51
2010-09-23 07:36:41 51°16.277 2°52.981 3 320 14.4 101100 51
2010-09-23 07:36:46 51°16.293 2°52.967 3.2 320 14.4 101100 52
2010-09-23 07:36:51 51°16.308 2°52.952 3 317 14.4 101100 52
2010-09-23 07:36:56 51°16.324 2°52.938 3.1 318 14.4 101100 52
2010-09-23 07:37:01 51°16.34 2°52.924 3.1 317 14.4 101100 52
2010-09-23 07:37:06 51°16.356 2°52.909 3.1 316 14.5 101100 54
2010-09-23 07:37:11 51°16.371 2°52.895 3.3 33 14.5 101100 54
2010-09-23 07:37:15 51°16.384 2°52.884 3.4 316 14.5 101100 52
2010-09-23 07:37:21 51°16.403 2°52.866 3.3 316 14.5 101100 52
2010-09-23 07:37:26 51°16.418 2°52.852 3.2 28 14.5 101100 53
2010-09-23 07:37:31 51°16.434 2°52.838 3.3 39 14.5 101100 53
2010-09-23 07:37:36 51°16.45 2°52.824 2.9 28 14.5 101100 54
2010-09-23 07:37:41 51°16.465 2°52.81 2.9 34 14.5 101100 54
2010-09-23 07:37:46 51°16.481 2°52.796 2.9 25 14.5 101110 52
2010-09-23 07:37:51 51°16.497 2°52.782 3 34 14.5 101110 52
2010-09-23 07:37:55 51°16.509 2°52.77 2.7 28 14.5 101100 54
2010-09-23 07:38:01 51°16.528 2°52.753 2.7 37 14.5 101100 54
2010-09-23 07:38:06 51°16.544 2°52.739 2.9 25 14.5 101100 54
2010-09-23 07:38:11 51°16.559 2°52.725 3.1 34 14.5 101100 54
2010-09-23 07:38:15 51°16.572 2°52.714 3.1 29 14.5 101110 54
2010-09-23 07:38:20 51°16.587 2°52.701 2.9 34 14.5 101110 54
2010-09-23 07:38:26 51°16.606 2°52.685 2.9 23 14.5 101110 52
2010-09-23 07:38:31 51°16.623 2°52.674 2.3 33 14.5 101110 52
2010-09-23 07:38:35 51°16.636 2°52.665 2.6 22 14.5 101100 53
2010-09-23 07:38:41 51°16.655 2°52.653 2 319 14.5 101100 53
2010-09-23 07:38:46 51°16.672 2°52.642 2.1 317 14.5 101110 52
2010-09-23 07:38:51 51°16.689 2°52.633 2 318 14.5 101110 52
2010-09-23 07:38:55 51°16.702 2°52.625 2.1 318 14.5 101110 52
2010-09-23 07:39:01 51°16.722 2°52.615 1.9 318 14.5 101110 52
2010-09-23 07:39:06 51°16.738 2°52.606 2.3 319 14.5 101110 54
2010-09-23 07:39:11 51°16.754 2°52.598 2 320 14.5 101110 54
2010-09-23 07:39:16 51°16.77 2°52.59 1.8 321 14.5 101110 53
2010-09-23 07:39:21 51°16.787 2°52.582 1.8 321 14.5 101110 53
2010-09-23 07:39:26 51°16.803 2°52.574 2 322 14.5 101110 55
2010-09-23 07:39:31 51°16.82 2°52.566 1.9 321 14.5 101110 55
2010-09-23 07:39:35 51°16.833 2°52.559 1.9 319 14.5 101110 52
2010-09-23 07:39:41 51°16.853 2°52.549 1.6 318 14.5 101110 52
2010-09-23 07:39:46 51°16.869 2°52.54 1.6 317 14.6 101110 52
2010-09-23 07:39:51 51°16.885 2°52.532 1.2 316 14.6 101110 52
2010-09-23 07:39:56 51°16.902 2°52.523 0.6 316 14.6 101110 52
2010-09-23 07:40:01 51°16.918 2°52.514 0.2 32 14.6 101110 52
2010-09-23 07:40:06 51°16.935 2°52.505 0.9 22 14.6 101110 52
2010-09-23 07:40:11 51°16.951 2°52.497 0.1 40 14.6 101110 52
2010-09-23 07:40:15 51°16.964 2°52.49 0.1 22 14.6 101110 53
2010-09-23 07:40:21 51°16.984 2°52.481 0.3 317 14.6 101110 53
2010-09-23 07:40:26 51°17 2°52.472 0.1 318 14.6 101110 53
2010-09-23 07:40:31 51°17.017 2°52.464 1 34 14.6 101110 53
2010-09-23 07:40:35 51°17.03 2°52.457 0.8 28 14.6 101110 54
2010-09-23 07:40:41 51°17.05 2°52.446 0.3 316 14.6 101110 54
2010-09-23 07:40:46 51°17.066 2°52.437 0.4 317 14.6 101110 54
2010-09-23 07:40:51 51°17.083 2°52.429 1.2 315 14.6 101110 54
2010-09-23 07:40:55 51°17.096 2°52.422 1.1 316 14.6 101110 53
2010-09-23 07:41:01 51°17.116 2°52.412 0.3 39 14.6 101110 53
2010-09-23 07:41:06 51°17.132 2°52.403 0.2 286 14.6 101110 53
2010-09-23 07:41:11 51°17.149 2°52.394 0.2 39 14.6 101110 53
2010-09-23 07:41:15 51°17.162 2°52.387 0.1 26 14.6 101110 52
2010-09-23 07:41:21 51°17.182 2°52.376 0.7 318 14.6 101110 52
2010-09-23 07:41:26 51°17.198 2°52.368 0.5 318 14.6 101110 53
2010-09-23 07:41:31 51°17.215 2°52.358 0.2 34 14.6 101110 53
2010-09-23 07:41:35 51°17.228 2°52.351 0.4 23 14.6 101110 53
2010-09-23 07:41:41 51°17.248 2°52.341 0.6 321 14.6 101110 53
2010-09-23 07:41:46 51°17.265 2°52.332 0.9 318 14.6 101110 53
2010-09-23 07:41:51 51°17.281 2°52.322 0.4 35 14.6 101110 53
2010-09-23 07:41:55 51°17.294 2°52.315 0.3 23 14.6 101110 52
2010-09-23 07:42:01 51°17.314 2°52.304 0.3 34 14.6 101110 52
2010-09-23 07:42:06 51°17.331 2°52.295 0.6 316 14.6 101110 53
2010-09-23 07:42:11 51°17.347 2°52.286 0.1 316 14.6 101110 53
2010-09-23 07:42:15 51°17.361 2°52.279 0.1 318 14.6 101110 53
2010-09-23 07:42:21 51°17.381 2°52.268 0.1 315 14.6 101110 53
2010-09-23 07:42:26 51°17.397 2°52.259 0.1 317 14.6 101110 53
2010-09-23 07:42:31 51°17.414 2°52.25 0.1 32 14.6 101110 53
2010-09-23 07:42:35 51°17.427 2°52.243 0.8 27 14.6 101110 53
2010-09-23 07:42:41 51°17.447 2°52.232 0.6 320 14.6 101110 53
2010-09-23 07:42:46 51°17.464 2°52.223 1.5 321 14.6 101110 55
2010-09-23 07:42:51 51°17.48 2°52.215 0.4 316 14.6 101110 55
2010-09-23 07:42:55 51°17.494 2°52.207 0.9 23 14.6 101110 53
2010-09-23 07:43:01 51°17.514 2°52.197 0.2 40 14.6 101110 53
2010-09-23 07:43:06 51°17.53 2°52.188 0.1 27 14.7 101110 53
2010-09-23 07:43:11 51°17.547 2°52.179 0.1 37 14.7 101110 53
2010-09-23 07:43:15 51°17.56 2°52.172 0.1 20 14.7 101110 53
2010-09-23 07:43:21 51°17.58 2°52.161 0.1 40 14.7 101110 53
2010-09-23 07:43:26 51°17.596 2°52.152 0.1 27 14.7 101110 53
2010-09-23 07:43:31 51°17.613 2°52.144 0.1 30 14.7 101110 53
2010-09-23 07:43:35 51°17.626 2°52.136 0.1 20 14.7 101110 53
2010-09-23 07:43:41 51°17.646 2°52.126 0.1 316 14.7 101110 53
2010-09-23 07:43:46 51°17.662 2°52.117 0.1 318 14.7 101110 53
2010-09-23 07:43:51 51°17.678 2°52.107 0.2 31 14.7 101110 53
2010-09-23 07:43:55 51°17.691 2°52.1 0.2 318 14.7 101110 53
2010-09-23 07:44:01 51°17.711 2°52.089 0.1 320 14.7 101110 53
2010-09-23 07:44:06 51°17.727 2°52.08 0.1 320 14.7 101110 53
2010-09-23 07:44:11 51°17.744 2°52.071 0.1 39 14.7 101110 53
2010-09-23 07:44:15 51°17.757 2°52.064 0.1 26 14.7 101110 53
2010-09-23 07:44:21 51°17.777 2°52.053 0.1 30 14.7 101110 53
2010-09-23 07:44:26 51°17.793 2°52.044 0.1 20 14.7 101110 53
2010-09-23 07:44:31 51°17.809 2°52.035 0.1 33 14.7 101110 53
2010-09-23 07:44:35 51°17.822 2°52.028 0.1 22 14.7 101100 52
2010-09-23 07:44:41 51°17.842 2°52.017 0.1 315 14.7 101100 52
2010-09-23 07:44:46 51°17.859 2°52.007 0.1 24 14.7 101110 53
2010-09-23 07:44:51 51°17.875 2°51.997 0.1 317 14.7 101110 53
2010-09-23 07:44:55 51°17.888 2°51.989 0.7 26 14.7 101110 53
2010-09-23 07:45:01 51°17.907 2°51.977 0.5 38 14.7 101110 53
2010-09-23 07:45:06 51°17.923 2°51.967 0.4 20 14.7 101110 53
2010-09-23 07:45:11 51°17.94 2°51.956 0.4 33 14.7 101110 53
2010-09-23 07:45:15 51°17.953 2°51.948 0.2 22 14.7 101110 53
2010-09-23 07:45:21 51°17.972 2°51.936 0.2 315 14.7 101110 53
2010-09-23 07:45:26 51°17.989 2°51.927 0.1 21 14.7 101110 54
2010-09-23 07:45:31 51°18.006 2°51.917 0.1 38 14.7 101110 54
2010-09-23 07:45:35 51°18.019 2°51.909 0.2 20 14.7 101110 53
2010-09-23 07:45:41 51°18.039 2°51.897 0.1 233 14.7 101110 53
2010-09-23 07:45:46 51°18.055 2°51.887 0.2 20 14.7 101110 53
2010-09-23 07:45:51 51°18.072 2°51.877 0.4 35 14.7 101110 53
2010-09-23 07:45:56 51°18.088 2°51.866 0.3 23 14.7 101110 53
2010-09-23 07:46:01 51°18.105 2°51.856 1.6 34 14.7 101110 53
2010-09-23 07:46:06 51°18.121 2°51.845 1.2 23 14.7 101110 53
2010-09-23 07:46:11 51°18.138 2°51.835 1.3 34 14.7 101110 53
2010-09-23 07:46:15 51°18.151 2°51.826 1.2 23 14.7 101110 51
2010-09-23 07:46:21 51°18.171 2°51.814 0.6 237 14.7 101110 51
2010-09-23 07:46:26 51°18.187 2°51.803 0.7 23 14.7 101100 53
2010-09-23 07:46:31 51°18.204 2°51.792 0.1 35 14.7 101100 53
2010-09-23 07:46:36 51°18.22 2°51.782 0.9 29 14.7 101110 53
2010-09-23 07:46:41 51°18.237 2°51.771 1.4 39 14.7 101110 53
2010-09-23 07:46:46 51°18.254 2°51.761 1.4 23 14.7 101100 53
2010-09-23 07:46:51 51°18.27 2°51.75 1.4 37 14.7 101100 53
2010-09-23 07:46:55 51°18.284 2°51.741 1.7 20 14.7 101100 53
2010-09-23 07:47:01 51°18.303 2°51.728 1.5 39 14.7 101100 53
2010-09-23 07:47:06 51°18.32 2°51.717 1.4 26 14.7 101110 53
2010-09-23 07:47:11 51°18.337 2°51.707 0.2 32 14.7 101110 53
2010-09-23 07:47:15 51°18.35 2°51.698 0.3 315 14.7 101100 51
2010-09-23 07:47:21 51°18.37 2°51.685 1.9 321 14.7 101100 51
2010-09-23 07:47:26 51°18.387 2°51.674 1.7 321 14.7 101100 51
2010-09-23 07:47:31 51°18.403 2°51.663 0.2 33 14.7 101100 51
2010-09-23 07:47:35 51°18.417 2°51.655 0.6 22 14.7 101100 53
2010-09-23 07:47:41 51°18.437 2°51.641 1 33 14.7 101100 53
2010-09-23 07:47:46 51°18.454 2°51.63 1 22 14.7 101100 52
2010-09-23 07:47:51 51°18.47 2°51.62 0.8 233 14.7 101100 52
2010-09-23 07:47:55 51°18.484 2°51.611 0.9 23 14.7 101100 53
2010-09-23 07:48:01 51°18.504 2°51.598 0.2 40 14.7 101100 53
2010-09-23 07:48:06 51°18.52 2°51.587 0.5 22 14.7 101100 54
2010-09-23 07:48:11 51°18.537 2°51.576 0.2 318 14.7 101100 54
2010-09-23 07:48:16 51°18.553 2°51.564 0.3 316 14.7 101100 53
2010-09-23 07:48:21 51°18.57 2°51.554 0.1 318 14.7 101100 53
2010-09-23 07:48:26 51°18.587 2°51.543 0.1 318 14.7 101100 53
2010-09-23 07:48:31 51°18.603 2°51.532 0.1 30 14.7 101100 53
2010-09-23 07:48:35 51°18.617 2°51.523 0.3 315 14.7 101100 53
2010-09-23 07:48:41 51°18.637 2°51.51 0.1 316 14.7 101100 53
2010-09-23 07:48:46 51°18.654 2°51.498 0.2 20 14.7 101100 54
2010-09-23 07:48:51 51°18.67 2°51.488 0.2 320 14.7 101100 54
2010-09-23 07:48:56 51°18.687 2°51.476 0.2 23 14.7 101100 53
2010-09-23 07:49:01 51°18.703 2°51.465 0.1 233 14.7 101100 53
2010-09-23 07:49:06 51°18.72 2°51.454 0.1 27 14.7 101100 53
2010-09-23 07:49:11 51°18.737 2°51.443 0.1 35 14.7 101100 53
2010-09-23 07:49:15 51°18.75 2°51.434 0.1 29 14.7 101100 53
2010-09-23 07:49:21 51°18.77 2°51.42 0.1 35 14.7 101100 53
2010-09-23 07:49:26 51°18.786 2°51.408 0.1 23 14.8 101100 53
2010-09-23 07:49:31 51°18.803 2°51.397 -999 35 14.8 101100 53
2010-09-23 07:49:35 51°18.816 2°51.388 -999 24 14.8 101090 53
2010-09-23 07:49:41 51°18.836 2°51.374 -999 39 14.8 101090 53
2010-09-23 07:49:46 51°18.852 2°51.362 -999 26 14.7 101090 53
2010-09-23 07:49:51 51°18.869 2°51.351 0.1 317 14.7 101090 53
2010-09-23 07:49:55 51°18.882 2°51.342 0.1 319 14.8 101090 52
2010-09-23 07:50:01 51°18.902 2°51.328 1.2 35 14.8 101090 52
2010-09-23 07:50:06 51°18.919 2°51.317 0.9 318 14.7 101090 53
2010-09-23 07:50:11 51°18.935 2°51.305 0.1 316 14.7 101090 53
2010-09-23 07:50:15 51°18.948 2°51.296 0.1 316 14.7 101090 53
2010-09-23 07:50:21 51°18.968 2°51.282 0.1 318 14.7 101090 53
2010-09-23 07:50:26 51°18.985 2°51.271 0.1 320 14.7 101090 53
2010-09-23 07:50:31 51°19.001 2°51.26 -999 316 14.7 101090 53
2010-09-23 07:50:35 51°19.014 2°51.251 0.1 316 14.8 101090 53
2010-09-23 07:50:41 51°19.034 2°51.237 0.1 316 14.8 101090 53
2010-09-23 07:50:46 51°19.051 2°51.225 0.1 316 14.8 101080 53
2010-09-23 07:50:51 51°19.067 2°51.214 0.1 317 14.8 101080 53
2010-09-23 07:50:55 51°19.08 2°51.205 0.1 325 14.8 101080 53
2010-09-23 07:51:01 51°19.1 2°51.191 0.4 328 14.8 101080 53
2010-09-23 07:51:06 51°19.116 2°51.179 0.2 320 14.8 101090 53
2010-09-23 07:51:11 51°19.133 2°51.168 0.1 323 14.8 101090 53
2010-09-23 07:51:16 51°19.15 2°51.157 0.1 323 14.8 101080 53
2010-09-23 07:51:21 51°19.167 2°51.145 0.1 320 14.8 101080 53
2010-09-23 07:51:26 51°19.183 2°51.134 0.1 315 14.8 101080 53
2010-09-23 07:51:31 51°19.2 2°51.122 -999 35 14.8 101080 53
2010-09-23 07:51:35 51°19.213 2°51.113 -999 24 14.8 101080 53
2010-09-23 07:51:41 51°19.232 2°51.099 -999 39 14.8 101080 53
2010-09-23 07:51:46 51°19.249 2°51.088 -999 316 14.8 101080 53
2010-09-23 07:51:51 51°19.266 2°51.076 -999 321 14.8 101080 53
2010-09-23 07:51:55 51°19.279 2°51.067 -999 24 14.8 101080 53
2010-09-23 07:52:01 51°19.299 2°51.053 -999 319 14.8 101080 53
2010-09-23 07:52:06 51°19.316 2°51.042 0.1 326 14.8 101080 53
2010-09-23 07:52:11 51°19.332 2°51.03 0.4 323 14.8 101080 53
2010-09-23 07:52:15 51°19.345 2°51.021 0.3 319 14.8 101080 53
2010-09-23 07:52:21 51°19.365 2°51.007 0.1 317 14.8 101080 53
2010-09-23 07:52:26 51°19.382 2°50.996 0.1 317 14.8 101080 53
2010-09-23 07:52:31 51°19.398 2°50.984 -999 322 14.8 101080 53
2010-09-23 07:52:35 51°19.412 2°50.975 -999 323 14.8 101080 52
2010-09-23 07:52:41 51°19.432 2°50.961 0.1 318 14.8 101080 52
2010-09-23 07:52:46 51°19.448 2°50.95 0.1 319 14.8 101080 53
2010-09-23 07:52:51 51°19.465 2°50.939 0.1 316 14.8 101080 53
2010-09-23 07:52:55 51°19.478 2°50.93 0.1 315 14.8 101080 53
2010-09-23 07:53:01 51°19.498 2°50.916 0.1 317 14.8 101080 53
2010-09-23 07:53:06 51°19.515 2°50.905 0.1 322 14.8 101080 53
2010-09-23 07:53:11 51°19.531 2°50.894 0.1 322 14.8 101080 53
2010-09-23 07:53:15 51°19.545 2°50.884 0.1 322 14.8 101080 53
2010-09-23 07:53:21 51°19.564 2°50.871 0.1 40 14.8 101080 53
2010-09-23 07:53:26 51°19.581 2°50.86 0.1 27 14.8 101080 53
2010-09-23 07:53:31 51°19.598 2°50.849 0.1 321 14.8 101080 53
2010-09-23 07:53:35 51°19.611 2°50.84 0.1 320 14.8 101080 53
2010-09-23 07:53:41 51°19.631 2°50.827 0.5 323 14.8 101080 53
2010-09-23 07:53:46 51°19.647 2°50.816 0.8 319 14.8 101080 53
2010-09-23 07:53:51 51°19.664 2°50.805 0.2 322 14.8 101080 53
2010-09-23 07:53:55 51°19.677 2°50.796 0.3 321 14.8 101080 53
2010-09-23 07:54:01 51°19.697 2°50.783 0.1 324 14.8 101080 53
2010-09-23 07:54:06 51°19.714 2°50.772 0.1 328 14.9 101080 53
2010-09-23 07:54:11 51°19.73 2°50.761 -999 324 14.9 101080 53
2010-09-23 07:54:15 51°19.743 2°50.753 -999 326 14.9 101080 53
2010-09-23 07:54:21 51°19.763 2°50.74 0.1 322 14.9 101080 53
2010-09-23 07:54:26 51°19.78 2°50.729 0.1 323 14.9 101080 53
2010-09-23 07:54:31 51°19.797 2°50.719 0.1 323 14.9 101080 53
2010-09-23 07:54:35 51°19.81 2°50.71 0.1 319 14.9 101080 53
2010-09-23 07:54:41 51°19.829 2°50.697 -999 321 14.9 101080 53
2010-09-23 07:54:46 51°19.845 2°50.687 -999 321 14.9 101080 53
2010-09-23 07:54:51 51°19.861 2°50.676 -999 327 14.9 101080 53
2010-09-23 07:54:55 51°19.873 2°50.668 -999 328 14.9 101080 53
2010-09-23 07:55:01 51°19.892 2°50.656 -999 319 14.9 101080 53
2010-09-23 07:55:06 51°19.907 2°50.646 -999 316 14.9 101080 53
2010-09-23 07:55:11 51°19.922 2°50.635 -999 320 14.9 101080 53
2010-09-23 07:55:15 51°19.935 2°50.627 -999 320 14.9 101070 52
2010-09-23 07:55:21 51°19.953 2°50.615 -999 326 14.9 101070 52
2010-09-23 07:55:26 51°19.968 2°50.604 -999 326 14.9 101070 53
2010-09-23 07:55:31 51°19.983 2°50.594 -999 35 14.9 101070 53
2010-09-23 07:55:35 51°19.995 2°50.585 -999 24 14.9 101080 53
2010-09-23 07:55:41 51°20.013 2°50.573 -999 38 14.9 101080 53
2010-09-23 07:55:46 51°20.028 2°50.564 -999 324 14.9 101080 53
2010-09-23 07:55:51 51°20.044 2°50.555 -999 334 14.9 101080 53
2010-09-23 07:55:55 51°20.056 2°50.548 -999 336 14.9 101070 53
2010-09-23 07:56:01 51°20.074 2°50.54 -999 347 14.9 101070 53
2010-09-23 07:56:06 51°20.09 2°50.532 -999 347 14.9 101070 53
2010-09-23 07:56:11 51°20.105 2°50.525 -999 348 14.9 101070 53
2010-09-23 07:56:15 51°20.118 2°50.52 -999 348 14.9 101070 53
2010-09-23 07:56:21 51°20.136 2°50.512 -999 355 14.9 101070 53
2010-09-23 07:56:26 51°20.152 2°50.506 -999 355 14.9 101070 53
2010-09-23 07:56:31 51°20.167 2°50.5 -999 355 14.9 101070 53
2010-09-23 07:56:35 51°20.18 2°50.495 -999 355 14.9 101070 53
2010-09-23 07:56:41 51°20.198 2°50.488 -999 355 14.9 101070 53
2010-09-23 07:56:46 51°20.214 2°50.482 -999 355 14.9 101070 53
2010-09-23 07:56:51 51°20.23 2°50.476 -999 357 14.9 101070 53
2010-09-23 07:56:55 51°20.243 2°50.472 -999 355 14.9 101070 53
2010-09-23 07:57:01 51°20.262 2°50.465 -999 359 14.9 101070 53
2010-09-23 07:57:06 51°20.277 2°50.459 -999 354 14.9 101070 53
2010-09-23 07:57:11 51°20.293 2°50.453 -999 359 14.9 101070 53
2010-09-23 07:57:15 51°20.306 2°50.448 -999 360 14.9 101070 53
2010-09-23 07:57:21 51°20.325 2°50.441 -999 357 14.9 101070 53
2010-09-23 07:57:26 51°20.341 2°50.435 -999 3 14.9 101070 53
2010-09-23 07:57:31 51°20.357 2°50.429 -999 355 14.9 101070 53
2010-09-23 07:57:35 51°20.37 2°50.425 0.1 353 15 101070 53
2010-09-23 07:57:41 51°20.389 2°50.418 0.1 10 15 101070 53
2010-09-23 07:57:46 51°20.405 2°50.412 0.1 10 15 101080 53
2010-09-23 07:57:51 51°20.421 2°50.408 -999 10 15 101080 53
2010-09-23 07:57:55 51°20.434 2°50.404 -999 10 15 101080 52
2010-09-23 07:58:01 51°20.454 2°50.399 -999 10 15 101080 52
2010-09-23 07:58:06 51°20.47 2°50.395 -999 3 15 101080 53
2010-09-23 07:58:11 51°20.486 2°50.391 -999 13 15 101080 53
2010-09-23 07:58:15 51°20.499 2°50.388 -999 19 15 101070 53
2010-09-23 07:58:21 51°20.519 2°50.384 -999 19 15 101070 53
2010-09-23 07:58:26 51°20.535 2°50.38 -999 19 15 101070 53
2010-09-23 07:58:31 51°20.552 2°50.377 -999 16 15 101070 53
2010-09-23 07:58:35 51°20.565 2°50.374 0.1 10 15 101070 53
2010-09-23 07:58:40 51°20.581 2°50.37 0.1 8 15 101070 53
2010-09-23 07:58:46 51°20.601 2°50.366 0.1 11 15 101070 53
2010-09-23 07:58:51 51°20.617 2°50.364 0.1 9 15 101070 53
2010-09-23 07:58:55 51°20.631 2°50.361 0.1 6 15 101070 53
2010-09-23 07:59:01 51°20.65 2°50.36 0.1 15 15 101070 53
2010-09-23 07:59:06 51°20.667 2°50.357 0.1 13 15 101070 53
2010-09-23 07:59:11 51°20.683 2°50.356 0.9 15 15 101070 53
2010-09-23 07:59:15 51°20.697 2°50.354 0.5 15 15.1 101070 53
2010-09-23 07:59:21 51°20.716 2°50.353 0.1 16 15.1 101070 53
2010-09-23 07:59:26 51°20.733 2°50.352 0.1 17 15.1 101070 53
2010-09-23 07:59:31 51°20.749 2°50.351 1.3 12 15.1 101070 53
2010-09-23 07:59:35 51°20.762 2°50.351 1.4 14 15.1 101070 53
2010-09-23 07:59:41 51°20.782 2°50.351 2.2 9 15.1 101070 53
2010-09-23 07:59:46 51°20.798 2°50.351 1.9 9 15.1 101070 52
2010-09-23 07:59:51 51°20.815 2°50.352 2 8 15.1 101070 52
2010-09-23 07:59:55 51°20.828 2°50.353 1.1 5 15.1 101070 53
2010-09-23 08:00:01 51°20.847 2°50.354 2.3 13 15.1 101070 53
2010-09-23 08:00:06 51°20.864 2°50.355 2.7 10 15.1 101070 53
2010-09-23 08:00:11 51°20.88 2°50.357 2.1 7 15.1 101070 53
2010-09-23 08:00:16 51°20.896 2°50.359 2.3 6 15.1 101070 55
2010-09-23 08:00:21 51°20.912 2°50.362 2.5 8 15.1 101070 55
2010-09-23 08:00:26 51°20.928 2°50.365 2.9 12 15.1 101070 55
2010-09-23 08:00:31 51°20.944 2°50.368 2.9 11 15.1 101070 55
2010-09-23 08:00:35 51°20.957 2°50.371 3.2 9 15.1 101070 54
2010-09-23 08:00:41 51°20.976 2°50.375 2.5 16 15.1 101070 54
2010-09-23 08:00:46 51°20.992 2°50.379 2.6 7 15.2 101070 55
2010-09-23 08:00:51 51°21.008 2°50.383 2.7 13 15.2 101070 55
2010-09-23 08:00:55 51°21.02 2°50.386 2.7 10 15.2 101070 52
2010-09-23 08:01:00 51°21.036 2°50.391 3.1 14 15.2 101070 52
2010-09-23 08:01:06 51°21.055 2°50.397 3.2 8 15.2 101070 52
2010-09-23 08:01:11 51°21.07 2°50.403 2.3 5 15.2 101070 52
2010-09-23 08:01:15 51°21.083 2°50.407 2.6 7 15.2 101070 54
2010-09-23 08:01:21 51°21.102 2°50.414 3.1 12 15.2 101070 54
2010-09-23 08:01:26 51°21.117 2°50.42 2.9 4 15.2 101070 54
2010-09-23 08:01:31 51°21.133 2°50.426 3.4 12 15.2 101070 54
2010-09-23 08:01:35 51°21.145 2°50.43 2.9 9 15.2 101070 52
2010-09-23 08:01:41 51°21.164 2°50.437 2.3 3 15.2 101070 52
2010-09-23 08:01:46 51°21.18 2°50.442 3 3 15.2 101070 53
2010-09-23 08:01:51 51°21.195 2°50.449 3.4 8 15.2 101070 53
2010-09-23 08:01:55 51°21.207 2°50.453 3 14 15.2 101070 53
2010-09-23 08:02:01 51°21.226 2°50.46 2.7 3 15.2 101070 53
2010-09-23 08:02:06 51°21.242 2°50.465 2.2 10 15.2 101070 54
2010-09-23 08:02:11 51°21.257 2°50.471 2.9 12 15.2 101070 54
2010-09-23 08:02:15 51°21.27 2°50.476 3.1 10 15.2 101070 55
2010-09-23 08:02:21 51°21.289 2°50.482 3.3 14 15.2 101070 55
2010-09-23 08:02:26 51°21.304 2°50.488 3.7 11 15.2 101070 52
2010-09-23 08:02:31 51°21.32 2°50.494 2.6 9 15.2 101070 52
2010-09-23 08:02:35 51°21.332 2°50.498 2.9 9 15.3 101070 52
2010-09-23 08:02:41 51°21.351 2°50.505 3 9 15.3 101070 52
2010-09-23 08:02:46 51°21.366 2°50.511 3.1 8 15.3 101070 52
2010-09-23 08:02:51 51°21.382 2°50.516 3.2 9 15.3 101070 52
2010-09-23 08:02:55 51°21.395 2°50.521 2.5 359 15.3 101070 52
2010-09-23 08:03:00 51°21.41 2°50.526 2.8 12 15.3 101070 52
2010-09-23 08:03:06 51°21.429 2°50.532 2.3 9 15.3 101070 54
2010-09-23 08:03:11 51°21.445 2°50.537 2 3 15.3 101070 54
2010-09-23 08:03:15 51°21.458 2°50.54 2 6 15.3 101070 51
2010-09-23 08:03:21 51°21.477 2°50.546 2.9 8 15.3 101070 51
2010-09-23 08:03:26 51°21.493 2°50.551 2.7 7 15.3 101070 52
2010-09-23 08:03:31 51°21.509 2°50.555 2.9 14 15.3 101070 52
2010-09-23 08:03:35 51°21.522 2°50.559 3.3 11 15.3 101070 52
2010-09-23 08:03:41 51°21.541 2°50.565 2.1 7 15.3 101070 52
2010-09-23 08:03:46 51°21.557 2°50.569 2.5 12 15.3 101070 52
2010-09-23 08:03:51 51°21.573 2°50.574 2 13 15.3 101070 52
2010-09-23 08:03:55 51°21.585 2°50.577 1.9 13 15.3 101070 54
2010-09-23 08:04:01 51°21.605 2°50.583 2.4 6 15.3 101070 54
2010-09-23 08:04:06 51°21.621 2°50.587 2.8 10 15.3 101070 54
2010-09-23 08:04:11 51°21.637 2°50.592 2.6 5 15.3 101070 54
2010-09-23 08:04:15 51°21.649 2°50.595 2 9 15.3 101070 51
2010-09-23 08:04:21 51°21.669 2°50.6 2.4 11 15.3 101070 51
2010-09-23 08:04:26 51°21.685 2°50.602 2.3 11 15.3 101070 51
2010-09-23 08:04:31 51°21.701 2°50.606 1.6 5 15.3 101070 51
2010-09-23 08:04:35 51°21.714 2°50.607 1.5 7 15.3 101070 52
2010-09-23 08:04:41 51°21.734 2°50.61 2.2 10 15.3 101070 52
2010-09-23 08:04:46 51°21.75 2°50.611 2 16 15.3 101060 54
2010-09-23 08:04:51 51°21.767 2°50.612 0.5 6 15.3 101060 54
2010-09-23 08:04:55 51°21.78 2°50.613 0.4 21 15.3 101070 51
2010-09-23 08:05:01 51°21.8 2°50.612 0.1 13 15.3 101070 51
2010-09-23 08:05:06 51°21.817 2°50.611 0.1 14 15.3 101070 55
2010-09-23 08:05:11 51°21.833 2°50.609 -999 1 15.3 101070 55
2010-09-23 08:05:15 51°21.846 2°50.608 -999 6 15.4 101070 53
2010-09-23 08:05:20 51°21.862 2°50.605 -999 10 15.4 101070 53
2010-09-23 08:05:26 51°21.882 2°50.601 -999 9 15.4 101070 53
2010-09-23 08:05:31 51°21.899 2°50.596 -999 9 15.4 101070 53
2010-09-23 08:05:35 51°21.912 2°50.592 -999 9 15.4 101070 53
2010-09-23 08:05:41 51°21.932 2°50.585 -999 9 15.4 101070 53
2010-09-23 08:05:46 51°21.948 2°50.579 -999 10 15.4 101060 53
2010-09-23 08:05:51 51°21.964 2°50.571 -999 8 15.4 101060 53
2010-09-23 08:05:55 51°21.977 2°50.565 -999 8 15.4 101060 52
2010-09-23 08:06:01 51°21.996 2°50.553 -999 356 15.4 101060 52
2010-09-23 08:06:06 51°22.012 2°50.544 -999 356 15.4 101060 53
2010-09-23 08:06:11 51°22.027 2°50.533 -999 356 15.4 101060 53
2010-09-23 08:06:16 51°22.043 2°50.523 -999 356 15.4 101060 53
2010-09-23 08:06:21 51°22.058 2°50.511 -999 355 15.4 101060 53
2010-09-23 08:06:26 51°22.074 2°50.5 -999 355 15.4 101060 53
2010-09-23 08:06:31 51°22.089 2°50.487 -999 352 15.4 101060 53
2010-09-23 08:06:35 51°22.101 2°50.477 0.1 352 15.4 101070 53
2010-09-23 08:06:41 51°22.119 2°50.46 1.1 267 15.4 101070 53
2010-09-23 08:06:46 51°22.133 2°50.446 0.6 259 15.4 101060 53
2010-09-23 08:06:51 51°22.147 2°50.43 0.2 254 15.4 101060 53
2010-09-23 08:06:55 51°22.159 2°50.418 0.2 256 15.4 101060 53
2010-09-23 08:07:01 51°22.175 2°50.398 1.7 260 15.4 101060 53
2010-09-23 08:07:06 51°22.189 2°50.381 2.1 259 15.4 101060 53
2010-09-23 08:07:11 51°22.203 2°50.363 3.2 259 15.4 101060 53
2010-09-23 08:07:15 51°22.213 2°50.349 3.6 255 15.4 101060 52
2010-09-23 08:07:21 51°22.229 2°50.327 2.4 259 15.4 101060 52
2010-09-23 08:07:26 51°22.243 2°50.309 1.9 266 15.4 101060 52
2010-09-23 08:07:31 51°22.256 2°50.29 2.3 259 15.4 101060 52
2010-09-23 08:07:35 51°22.267 2°50.276 2 262 15.4 101060 54
2010-09-23 08:07:40 51°22.28 2°50.256 1.9 256 15.4 101060 54
2010-09-23 08:07:46 51°22.296 2°50.234 2.6 258 15.4 101060 52
2010-09-23 08:07:51 51°22.309 2°50.216 2.8 254 15.4 101060 52
2010-09-23 08:07:55 51°22.32 2°50.201 2.2 252 15.4 101060 54
2010-09-23 08:08:01 51°22.336 2°50.18 1 264 15.4 101060 54
2010-09-23 08:08:06 51°22.349 2°50.162 0.8 264 15.4 101060 52
2010-09-23 08:08:11 51°22.363 2°50.144 0.2 259 15.4 101060 52
2010-09-23 08:08:15 51°22.374 2°50.131 1.3 260 15.4 101060 54
2010-09-23 08:08:21 51°22.391 2°50.111 0.2 258 15.4 101060 54
2010-09-23 08:08:26 51°22.405 2°50.095 0.6 260 15.5 101060 52
2010-09-23 08:08:31 51°22.419 2°50.079 1.3 266 15.5 101060 52
2010-09-23 08:08:35 51°22.43 2°50.066 1.3 264 15.4 101060 52
2010-09-23 08:08:41 51°22.448 2°50.048 0.1 268 15.4 101060 52
2010-09-23 08:08:46 51°22.462 2°50.032 0.4 261 15.4 101060 53
2010-09-23 08:08:51 51°22.477 2°50.018 0.1 255 15.4 101060 53
2010-09-23 08:08:55 51°22.488 2°50.005 0.1 255 15.5 101060 53
2010-09-23 08:09:01 51°22.505 2°49.987 -999 40 15.5 101060 53
2010-09-23 08:09:06 51°22.52 2°49.972 -999 27 15.5 101060 53
2010-09-23 08:09:11 51°22.534 2°49.957 -999 40 15.5 101060 53
2010-09-23 08:09:15 51°22.545 2°49.945 -999 270 15.5 101060 53
2010-09-23 08:09:21 51°22.562 2°49.927 1.6 41 15.5 101060 53
2010-09-23 08:09:26 51°22.576 2°49.913 1.4 28 15.5 101050 53
2010-09-23 08:09:31 51°22.59 2°49.898 0.3 42 15.5 101050 53
2010-09-23 08:09:35 51°22.601 2°49.887 0.1 28 15.5 101050 52
2010-09-23 08:09:41 51°22.618 2°49.869 0.2 34 15.5 101050 52
2010-09-23 08:09:46 51°22.631 2°49.855 0.1 23 15.5 101050 53
2010-09-23 08:09:51 51°22.645 2°49.841 0.1 38 15.5 101050 53
2010-09-23 08:09:55 51°22.656 2°49.83 -999 26 15.5 101050 53
2010-09-23 08:10:00 51°22.67 2°49.815 -999 36 15.5 101050 53
2010-09-23 08:10:06 51°22.686 2°49.798 -999 24 15.5 101050 53
2010-09-23 08:10:11 51°22.7 2°49.784 -999 269 15.5 101050 53
2010-09-23 08:10:15 51°22.711 2°49.772 -999 269 15.5 101050 53
2010-09-23 08:10:21 51°22.727 2°49.755 1.7 32 15.5 101050 53
2010-09-23 08:10:26 51°22.741 2°49.741 1.5 27 15.5 101050 53
2010-09-23 08:10:31 51°22.754 2°49.727 1.6 32 15.5 101050 53
2010-09-23 08:10:35 51°22.765 2°49.715 1.9 28 15.5 101050 53
2010-09-23 08:10:41 51°22.781 2°49.699 2 34 15.5 101050 53
2010-09-23 08:10:46 51°22.795 2°49.685 2 23 15.5 101040 54
2010-09-23 08:10:51 51°22.808 2°49.671 2 33 15.5 101040 54
2010-09-23 08:10:55 51°22.819 2°49.66 2.1 23 15.5 101040 54
2010-09-23 08:11:01 51°22.836 2°49.644 2.1 34 15.5 101040 54
2010-09-23 08:11:06 51°22.849 2°49.631 1.8 27 15.5 101050 52
2010-09-23 08:11:11 51°22.863 2°49.617 1.4 35 15.5 101050 52
2010-09-23 08:11:15 51°22.874 2°49.605 1.4 23 15.5 101050 51
2010-09-23 08:11:21 51°22.89 2°49.588 1.3 32 15.5 101050 51
2010-09-23 08:11:26 51°22.903 2°49.574 1 27 15.5 101050 52
2010-09-23 08:11:31 51°22.916 2°49.56 0.5 32 15.5 101050 52
2010-09-23 08:11:35 51°22.927 2°49.548 1.1 22 15.5 101050 53
2010-09-23 08:11:41 51°22.943 2°49.531 0.6 35 15.5 101050 53
2010-09-23 08:11:46 51°22.956 2°49.517 0.9 28 15.5 101040 55
2010-09-23 08:11:51 51°22.97 2°49.503 1.1 35 15.5 101040 55
2010-09-23 08:11:55 51°22.98 2°49.492 0.6 268 15.5 101050 52
2010-09-23 08:12:01 51°22.997 2°49.475 1.2 31 15.5 101050 52
2010-09-23 08:12:06 51°23.01 2°49.461 1.1 21 15.5 101040 53
2010-09-23 08:12:11 51°23.024 2°49.447 0.1 41 15.5 101040 53
2010-09-23 08:12:15 51°23.035 2°49.435 0.1 28 15.6 101040 53
2010-09-23 08:12:21 51°23.052 2°49.418 0.8 32 15.6 101040 53
2010-09-23 08:12:26 51°23.066 2°49.403 1.6 22 15.6 101040 53
2010-09-23 08:12:31 51°23.079 2°49.389 1.8 39 15.6 101040 53
2010-09-23 08:12:35 51°23.09 2°49.377 1.4 21 15.6 101040 55